Tegel Arpt/Berlin, Germany

5:19 AM CET on February 23, 2017 (GMT +0100)
Tegel

Weather History for EDDT - October, 2013

Change the Weather History Date:

Friday, October 25, 2013

  Actual Average Record
Temperature  
Mean Temperature 50 °F -  
Max Temperature 60 °F 46 °F 66 °F (2004)
Min Temperature 40 °F 36 °F 32 °F (1997)
Degree Days  
Heating Degree Days 15    
Moisture  
Dew Point 48 °F    
Average Humidity 86    
Maximum Humidity 100    
Minimum Humidity 67    
Precipitation  
Precipitation 0.00 in - - ()
Sea Level Pressure  
Sea Level Pressure 30.06 in    
Wind  
Wind Speed 4 mph ()    
Max Wind Speed 11 mph    
Max Gust Speed -    
Visibility 9.6 miles    
Events Fog , Rain    
Averages and records for this station are not official NWS values.
T = Trace of Precipitation, MM = Missing Value Source: Averaged Metar Reports

Daily Weather History Graph

Daily Weather History Graph

Search for Another Location

Airport or City:

Trip Planner

Search our weather history database for the weather conditions in past years. The results will help you decide how hot, cold, wet, or windy it might be!

Date:

Astronomy

Oct. 25, 2013 Rise Set
Actual Time 7:50 AM CEST 5:50 PM CEST
Civil Twilight 7:14 AM CEST 6:25 PM CEST
Nautical Twilight 6:35 AM CEST 7:05 PM CEST
Astronomical Twilight 5:55 AM CEST 7:45 PM CEST
Moon 10:41 PM CEST (10/25) 1:34 PM CEST (10/25)
Length of Visible Light 11h 10m
Length of Day
9h 59m
Waning Gibbous, 65% of the Moon is Illuminated
Oct 25
Waning Gibbous
Oct 27
Last Quarter
Nov 3
New
Nov 10
First Quarter
Nov 17
Full

Hourly Weather History & Observations

Time (CEST) Temp. Windchill Dew Point Humidity Pressure Visibility Wind Dir Wind Speed Gust Speed Precip Events Conditions
12:20 AM 44.6 °F - 42.8 °F 93% 30.15 in 6.2 mi NW 1.2 mph - N/A Fog Patches of Fog
12:50 AM 42.8 °F - 41.0 °F 93% 30.15 in 6.2 mi Calm Calm - N/A Fog Patches of Fog
1:00 AM 42 °F - 41 °F 94% 30.16 in 9 mi SW 2.2 mph - - Fog Light Fog
1:20 AM 41.0 °F - 41.0 °F 100% 30.15 in 6.2 mi Calm Calm - N/A Fog Shallow Fog
1:50 AM 41.0 °F - 41.0 °F 100% 30.12 in 6.2 mi Variable 1.2 mph - N/A Fog Patches of Fog
2:00 AM 42 °F - 40 °F 92% 30.16 in 9 mi ESE 2.2 mph - - Fog Light Fog
2:20 AM 41.0 °F - 41.0 °F 100% 30.12 in 6.2 mi Variable 1.2 mph - N/A Fog Patches of Fog
2:50 AM 41.0 °F - 41.0 °F 100% 30.12 in 4.3 mi SE 1.2 mph - N/A Fog Patches of Fog
3:00 AM 41 °F - 41 °F 99% 30.14 in 4 mi Calm Calm - - Fog Light Fog
3:20 AM 41.0 °F - 41.0 °F 100% 30.12 in 3.7 mi SE 1.2 mph - N/A Fog Patches of Fog
3:50 AM 41.0 °F - 41.0 °F 100% 30.12 in 6.2 mi ESE 1.2 mph - N/A Fog Patches of Fog
4:00 AM 41 °F - 40 °F 97% 30.15 in 6 mi ESE 2.2 mph - - Fog Light Fog
4:20 AM 41.0 °F - 41.0 °F 100% 30.12 in 6.2 mi North 1.2 mph - N/A Fog Patches of Fog
4:50 AM 41.0 °F - 41.0 °F 100% 30.12 in 6.2 mi Calm Calm - N/A Fog Shallow Fog
5:00 AM 41 °F - 40 °F 95% 30.15 in 9 mi Calm Calm - - Fog Patches of Fog
5:20 AM 41.0 °F - 41.0 °F 100% 30.12 in 6.2 mi NE 2.3 mph - N/A Fog Shallow Fog
5:50 AM 41.0 °F - 41.0 °F 100% 30.12 in 6.2 mi NW 1.2 mph - N/A Fog Shallow Fog
6:00 AM 41 °F - 41 °F 98% 30.15 in 9 mi Calm Calm - - Fog Patches of Fog
6:20 AM 42.8 °F - 42.8 °F 100% 30.12 in 6.2 mi NNE 1.2 mph - N/A Fog Patches of Fog
6:50 AM 42.8 °F - 42.8 °F 100% 30.12 in 6.2 mi Variable 1.2 mph - N/A Fog Shallow Fog
7:00 AM 43 °F - 42 °F 97% 30.14 in 12 mi East 2.2 mph - - Fog Patches of Fog
7:20 AM 44.6 °F 43.1 °F 44.6 °F 100% 30.12 in 6.2 mi NE 3.5 mph - N/A Fog Shallow Fog
7:50 AM 44.6 °F - 42.8 °F 93% 30.12 in - NE 2.3 mph - N/A   Clear
8:00 AM 45 °F - 43 °F 90% 30.13 in 12 mi East 2.2 mph - -   Mostly Cloudy
8:20 AM 44.6 °F - 42.8 °F 93% 30.12 in - NNE 2.3 mph - N/A   Clear
8:50 AM 46.4 °F 45.2 °F 44.6 °F 93% 30.12 in - NE 3.5 mph - N/A   Clear
9:00 AM 46 °F - 44 °F 88% 30.13 in 16 mi East 2.2 mph - -   Mostly Cloudy
9:20 AM 48.2 °F - 44.6 °F 87% 30.12 in - ENE 4.6 mph - N/A   Clear
9:50 AM 48.2 °F - 44.6 °F 87% 30.12 in - East 4.6 mph - N/A   Clear
10:00 AM 49 °F - 45 °F 79% 30.13 in 16 mi East 2.2 mph - -   Mostly Cloudy
10:20 AM 50.0 °F - 46.4 °F 87% 30.09 in - East 6.9 mph - N/A   Clear
10:50 AM 53.6 °F - 46.4 °F 77% 30.09 in - East 8.1 mph - N/A   Clear
11:00 AM 53 °F - 47 °F 72% 30.12 in 13 mi East 8.9 mph - -   Mostly Cloudy
11:20 AM 53.6 °F - 48.2 °F 82% 30.09 in - ESE 10.4 mph - N/A   Clear
11:50 AM 55.4 °F - 48.2 °F 77% 30.09 in - ESE 10.4 mph - N/A   Clear
12:00 PM 55 °F - 49 °F 73% 30.09 in 13 mi ESE 11.2 mph - -   Mostly Cloudy
12:20 PM 55.4 °F - 50.0 °F 82% 30.06 in - ESE 9.2 mph - N/A   Clear
12:50 PM 57.2 °F - 50.0 °F 77% 30.06 in - ESE 8.1 mph - N/A   Clear
1:00 PM 56 °F - 51 °F 77% 30.07 in 12 mi ESE 8.9 mph - -   Mostly Cloudy
1:20 PM 57.2 °F - 51.8 °F 82% 30.06 in - ESE 9.2 mph - N/A   Clear
1:50 PM 59.0 °F - 51.8 °F 77% 30.04 in - ESE 9.2 mph - N/A   Clear
2:00 PM 59 °F - 52 °F 71% 30.05 in 12 mi ESE 8.9 mph - -   Mostly Cloudy
2:20 PM 59.0 °F - 51.8 °F 77% 30.04 in - ESE 8.1 mph - N/A   Clear
2:50 PM 59.0 °F - 51.8 °F 77% 30.01 in - ESE 9.2 mph - N/A   Clear
3:00 PM 60 °F - 52 °F 67% 30.03 in 12 mi SSE 8.9 mph - -   Mostly Cloudy
3:20 PM 60.8 °F - 53.6 °F 77% 30.01 in - ESE 10.4 mph - N/A   Clear
3:50 PM 60.8 °F - 53.6 °F 77% 30.01 in - SE 6.9 mph - N/A   Clear
4:00 PM 60 °F - 53 °F 71% 30.01 in 12 mi SSE 8.9 mph - -   Mostly Cloudy
4:20 PM 60.8 °F - 53.6 °F 77% 30.01 in - SE 9.2 mph - N/A   Clear
4:50 PM 60.8 °F - 53.6 °F 77% 29.98 in - SE 6.9 mph - N/A   Clear
5:00 PM 60 °F - 54 °F 74% 30.00 in 12 mi SSE 8.9 mph - -   Mostly Cloudy
5:20 PM 59.0 °F - 53.6 °F 82% 29.98 in - SE 8.1 mph - N/A   Clear
5:50 PM 59.0 °F - 53.6 °F 82% 29.98 in - SSE 8.1 mph - N/A   Clear
6:00 PM 59 °F - 54 °F 78% 29.99 in 8 mi SSE 6.7 mph - -   Mostly Cloudy
6:20 PM 59.0 °F - 53.6 °F 82% 29.98 in - SSE 6.9 mph - N/A   Clear
6:50 PM 59.0 °F - 53.6 °F 82% 29.98 in 6.2 mi SSE 5.8 mph - N/A Rain Light Rain
7:00 PM 59 °F - 54 °F 80% 29.98 in 19 mi SSE 6.7 mph - - Rain Light Rain
7:20 PM 59.0 °F - 53.6 °F 82% 29.98 in - SSE 5.8 mph - N/A   Clear
7:50 PM 59.0 °F - 55.4 °F 88% 29.95 in 6.2 mi SSE 9.2 mph - N/A Rain Light Rain
8:00 PM 60 °F - 55 °F 78% 29.97 in 19 mi SSE 8.9 mph - - Rain Light Rain
8:20 PM 59.0 °F - 53.6 °F 82% 29.95 in - SSE 5.8 mph - N/A   Clear
8:50 PM 59.0 °F - 55.4 °F 88% 29.92 in 6.2 mi SSE 6.9 mph - N/A   Mostly Cloudy
9:00 PM 60 °F - 55 °F 77% 29.94 in 19 mi SSE 6.7 mph - - Rain Light Rain
9:20 PM 59.0 °F - 53.6 °F 82% 29.92 in 6.2 mi SE 6.9 mph - N/A   Mostly Cloudy
9:50 PM 59.0 °F - 53.6 °F 82% 29.92 in - SSE 5.8 mph - N/A   Clear
10:00 PM 60 °F - 54 °F 76% 29.94 in 19 mi SSE 6.7 mph - -   Overcast
10:20 PM 59.0 °F - 53.6 °F 82% 29.92 in - South 6.9 mph - N/A   Clear
10:50 PM 59.0 °F - 53.6 °F 82% 29.92 in - SSE 5.8 mph - N/A   Clear
11:00 PM 59 °F - 54 °F 77% 29.93 in 19 mi SSE 6.7 mph - -   Partly Cloudy
11:20 PM 59.0 °F - 53.6 °F 82% 29.92 in - SSE 6.9 mph - N/A   Clear
11:50 PM 59.0 °F - 53.6 °F 82% 29.92 in - South 8.1 mph - N/A   Clear